THORAD DELTA 1 DEB, 9985

Orbit data source: Space-Track

THORAD DELTA 1 DEB, 9985 is space debris in SSO originally from a launch on Fri, 15 Nov 1974 UTC launched from the Air Force Western Test Range (AFWTR). Debris objects in space refer to the collection of defunct objects orbiting the Earth. Examples of debris include non-operational satellites, rocket bodies, and fragments generated from explosions, collisions, or faulty payload assembly.

Loading next visibility...
Identifier
9985, 1974-089EC
Orbit
SSO
Country
Flag of USUS
Related business
Manufacturer
Unknown
Mission
Spacecraft
Bus & Motor
Unknown
Mass
Unknown
Launch date (UTC)
1974-11-15 (52 years ago)
Launch vehicle
Unknown
Launch site
Air Force Western Test Range (AFWTR)
Object type
Payload
Rocket body
Debris
Shape & HBR
Unknown shape, 0.1 m
Radar Cross Section
Medium (>0.1 m² and <1 m²)

Expand to show TLE details & history
Last TLE update: 1 week ago

TLE from 1 week ago
0 THORAD DELTA 1 DEB
1 09985U 74089EC  26154.74567225  .00000039  00000-0  56306-3 0  9990
2 09985 101.9917 119.1579 0049800  52.5547  67.4198 12.49095648350802
Epoch: 2026-06-03T17:53Z
TLE epoch observation values (Epoch: 2026-06-03T17:53:46.082Z)
Latitude
57.53106°
Longitude
157.91644°
Altitude
1,462.903 km
Speed
7.143 km/s
True Right ascension
21h 14m 13s
True Declination
57° 23' 21"
Sunlit
Object was in daylight at epoch
Visualization orbit readout
Latitude
Unknown
Longitude
Unknown
Altitude
Unknown
Speed
Unknown
Apparent Right ascension
Unknown
Apparent Declination
Unknown
Sunlit
N/A
Visualization observer readout
Local Sidereal Time
17:44:26
Azimuth
Unknown
Elevation
Unknown
Doppler factor
Unknown
Orbital elements
Apogee altitude
1,504.905 km
Perigee altitude
1,426.779 km
Semi-major axis
7,843.979 km
Eccentricity
0.00498
Inclination
101.9917°
RAAN
119.1579°
Arg. of periapsis
52.5547°
True anomaly
67.94798°
Mean anomaly
67.4198°
Eccentric anomaly
67.68376°
Mean motion
3.1242 °/min
Orbital period
115.23 mins
BSTAR
0.00056306
Loading maneuver chart data...
Computing Atmospheric mass density...

Documentation

Showing up to 5 results
|